[Iaude] MPEC B168: 2024 BT3 [a=1.68,e=0.39,i=2.8,H=26.8]

mpec at marsden.cfa.harvard.edu mpec at marsden.cfa.harvard.edu
Tue Jan 30 22:15:29 EST 2024


M.P.E.C. 2024-B168                             Issued 2024 January 31, 03:13 UT

     The Minor Planet Electronic Circulars contain information on unusual
         minor planets, routine data on comets and natural satellites,
         and occasional editorial announcements.  They are published
    on behalf of Division F of the International Astronomical Union by the
          Minor Planet Center, Smithsonian Astrophysical Observatory,
                          Cambridge, MA 02138, U.S.A.
			  
             Prepared using the Tamkin Foundation Computer Network

                              MPC at CFA.HARVARD.EDU
            URL https://www.minorplanetcenter.net/    ISSN 1523-6714

                                    2024 BT3                                    


Observations:
     K24B03T*1C2024 01 30.28353008 17 13.506+18 05 56.51         20.21GVEB168G96
     K24B03T 1C2024 01 30.28926108 17 17.920+18 06 07.88         20.73GVEB168G96
     K24B03T 1C2024 01 30.29500508 17 22.294+18 06 19.48         20.10GVEB168G96
     K24B03T 1C2024 01 30.30073808 17 26.689+18 06 30.71         20.47GVEB168G96
     K24B03T 1C2024 01 30.38855208 18 34.430+18 09 13.30               VEB168G96
     K24B03T 1C2024 01 30.38908208 18 34.800+18 09 14.30         20.27GVEB168G96
     K24B03T KB2024 01 30.90910 08 26 14.50 +18 25 19.8          20.4 RZEB168106
     K24B03T KB2024 01 30.91416 08 26 18.72 +18 25 29.6          20.5 RZEB168106
     K24B03T KB2024 01 30.91902 08 26 22.70 +18 25 39.7          20.3 RZEB168106
     K24B03T KB2024 01 30.92384 08 26 26.62 +18 25 48.9          19.9 RZEB168106
     K24B03T IC2024 01 30.98369908 27 15.93 +18 27 44.5          20.0 GVEB168L01
     K24B03T KC2024 01 30.98573008 27 17.60 +18 27 48.2          20.3 GVEB168L01
     K24B03T KC2024 01 30.98793408 27 19.37 +18 27 52.8          20.1 GVEB168L01
     K24B03T KC2024 01 30.98993308 27 21.05 +18 27 56.0          20.1 GVEB168L01
     K24B03T KC2024 01 30.99207508 27 22.85 +18 28 00.2          20.0 GVEB168L01
     K24B03T KC2024 01 30.99379208 27 24.25 +18 28 03.0          20.3 GVEB168L01
     K24B03T KB2024 01 31.05720608 28 19.29 +18 30 06.8          19.8 GXEB168958
     K24B03T KB2024 01 31.06248808 28 23.72 +18 30 15.3          19.9 GXEB168958
     K24B03T KB2024 01 31.06777008 28 28.06 +18 30 25.6          19.7 GXEB168958

Observer details:
106 Crni Vrh.  Observer H. Mikuz.  0.60-m f/3.3 reflector + CMO.
958 Observatoire de Dax.  Observer P. Dupouy.  0.50-m f/4.5 Reflector + CMO.
G96 Mt. Lemmon Survey.  Observer D. Rankin.  Measurers T. Beuden, V. F.
    Carvajal, D. Fay, J. B. Fazekas, D. C. Fuls, A. R. Gibbs, A. D. Grauer, H.
    Groeller, J. K. Hogan, R. A. Kowalski, S. M. Larson, G. J. Leonard, D.
    Rankin, R. L. Seaman, F. C. Shelly, K. W. Wierzchos.  1.5-m reflector +
    10K CCD.
L01 Visnjan Observatory, Tican.  Observer K. Korlevic.  1.0-m f/2.9 reflector
    + CCD.

Orbital elements:
2024 BT3                                                 Earth MOID = 0.0329 AU
Epoch 2023 Sept. 13.0 TT = JDT 2460200.5                Veres                   
M 291.66326              (2000.0)            P               Q                  
n   0.45338016     Peri.   11.50178     -0.78882458     -0.61347009             
a   1.6781381      Node   130.59130     +0.55990637     -0.74246283             
e   0.3922810      Incl.    2.83460     +0.25349682     -0.26907880             
P   2.17           H   26.88          G   0.15           U   9                  
Residuals in seconds of arc
240130 G96  0.5-  0.1+    240130 106  0.4+  0.5-    240130 L01  0.5+  0.1+
240130 G96  0.1+  0.1+    240130 106  0.2+  0.0     240130 L01  0.2+  0.2-
240130 G96  0.1-  0.4+    240130 106  0.3-  0.2-    240131 958  0.2-  0.6+
240130 G96  0.2+  0.4+    240130 L01  0.3+  0.3-    240131 958  0.3+  0.2-
240130 G96  0.5+  0.1-    240130 L01  0.3+  0.3-    240131 958  0.5-  0.8+
240130 G96  0.2-  0.0     240130 L01  0.4-  0.3+
240130 106  0.5-  0.3-    240130 L01  0.1+  0.2-

Ephemeris:
2024 BT3                 a,e,i = 1.68, 0.39, 3                   q = 1.0198
Date    TT    R. A. (2000) Decl.     Delta      r    Elong.  Phase     V
2024 01 01    05 58 49.4 +10 14 58   0.1268  1.1055   163.5    14.6    23.4
...
2024 01 16    06 27 25.2 +11 55 44   0.07677 1.0556   158.7    19.8    22.4
...
2024 01 24    07 10 22.2 +14 45 58   0.05525 1.0370   162.3    16.7    21.6
...
2024 01 30    08 13 16.7 +17 57 26   0.04282 1.0274   172.1     7.6    20.6
2024 01 31    08 27 31.6 +18 29 51   0.04123 1.0261   174.4     5.4    20.5
2024 02 01    08 42 57.0 +19 00 11   0.03983 1.0250   176.7     3.1    20.2
...
2024 02 07    10 33 59.0 +20 09 04   0.03607 1.0205   161.7    17.7    20.6
...
2024 02 15    12 44 34.7 +15 49 17   0.04393 1.0206   137.9    40.4    21.7
...
2024 03 01    14 19 55.3 +08 38 19   0.07710 1.0397   127.6    49.0    23.2

M. P. C. Staff               (C) Copyright 2024 MPC           M.P.E.C. 2024-B168





More information about the Iaude mailing list